Rbgn^[z[y[W
メイン
   新天体発見情報
     Comet P/2003 L1 = 2019 E1 (Scotti)
投稿するにはまず登録を

スレッド表示 | 古いものから 前のトピック | 次のトピック | 下へ
投稿者 スレッド
佐藤裕久
投稿日時: 2019-3-17 7:57
モデレータ
登録日: 2005-6-12
居住地: 日本
投稿: 2661
オンライン
Comet P/2003 L1 = 2019 E1 (Scotti)

E. Schwab (Egelsbach, ドイツ)の通報によると、3月9日と10日UT、D. Abreuがスペインの
Tenerife にあるESA(欧州宇宙機関)の光学地上局の1.0-m f/4.4 反射望遠鏡で得た画像
から光度20.2〜20.4等のP/2003 L1を検出した。合計600秒のスタックイメージでは、p.a. 
300°にかすかな尾が約10"が伸びて見えた。
ICQ's 2019 Comet Handbookの中野主一氏の予報に対して、Delta(T)は、-0.17 dayであった。

検出位置は次のとおり、

     2019 UT             R.A. (2000) Decl.       Mag.   Observer
     Mar.  9.10987   11 35 12.12   - 6 40 13.0   20.3   Abreu
           9.11741   11 35 11.92   - 6 40 11.7   20.3     "
           9.12493   11 35 11.70   - 6 40 10.3   20.3     "
          10.09125   11 34 46.85   - 6 37 09.7   20.4     "
          10.09879   11 34 46.66   - 6 37 08.0   20.3     "
          10.10633   11 34 46.44   - 6 37 06.7   20.2     "

連結軌道要素と位置推算表は次のとおり、

Orbital elements:
    P/2003 L1 (Scotti)
Epoch 2003 Mar. 22.0 TT = JDT 2452720.5
T 2003 Mar. 7.36981 TT                                  MPCW
q   5.0098757            (2000.0)            P               Q
n   0.05686257     Peri.  355.16323     -0.75164633     +0.64983115
a   6.6975873      Node   226.03827     -0.59975785     -0.74462638
e   0.2519880      Incl.    9.02431     -0.27444182     -0.15248290
P  17.33
From 75 observations 2002 Apr. 5-2019 Mar. 10, mean residual 0".4.

    P/2003 L1 (Scotti)
Epoch 2020 July 10.0 TT = JDT 2459040.5
T 2020 July 11.30192 TT                                 MPCW
q   5.0167158            (2000.0)            P               Q
n   0.05666080     Peri.  354.97025     -0.75359043     +0.64757351
a   6.7134778      Node   226.05927     -0.59750081     -0.74641318
e   0.2527396      Incl.    9.02208     -0.27403327     -0.15334898
P  17.39
From 75 observations 2002 Apr. 5-2019 Mar. 10, mean residual 0".4.

    P/2003 L1 (Scotti)
Epoch 2038 Apr. 7.0 TT = JDT 2465520.5
T 2038 Apr. 24.26613 TT                                 MPCW
q   5.1692786            (2000.0)            P               Q
n   0.05597093     Peri.    0.84858     -0.71037613     +0.69491964
a   6.7685304      Node   223.89679     -0.64668870     -0.70702877
e   0.2362776      Incl.    9.26154     -0.27777596     -0.13113736
P  17.61
From 75 observations 2002 Apr. 5-2019 Mar. 10, mean residual 0".4.

    P/2003 L1 (Scotti)
Epoch 2019 Apr. 27.0 TT = JDT 2458600.5
T 2020 July  9.83497 TT                                 MPCW
q   5.0175637            (2000.0)            P               Q
n   0.05660999     Peri.  354.82270     -0.75521024     +0.64568513
a   6.7174949      Node   226.06326     -0.59562540     -0.74790183
e   0.2530603      Incl.    9.02082     -0.27365648     -0.15405700
P  17.41
From 75 observations 2002 Apr. 5-2019 Mar. 10, mean residual 0".4.

Ephemeris:
    P/2003 L1 (Scotti)
Date    TT    R. A. (2000) Decl.     Delta      r     Elong.  Phase   m1
2019 02 08    11 45 33.4 -07 40 54   4.6080  5.3835   138.2     7.0  20.1
...
2019 02 23    11 40 53.8 -07 17 38   4.4580  5.3642   153.9     4.7  20.0
...
2019 03 03    11 37 46.3 -06 58 01   4.4025  5.3541   162.0     3.3  20.0
...
2019 03 09    11 35 15.0 -06 40 32   4.3731  5.3465   167.5     2.3  20.0
2019 03 10    11 34 49.2 -06 37 25   4.3692  5.3453   168.3     2.2  20.0
2019 03 11    11 34 23.4 -06 34 16   4.3657  5.3441   169.0     2.0  20.0
...
2019 03 17    11 31 47.2 -06 14 19   4.3508  5.3366   171.5     1.6  20.0
...
2019 03 25    11 28 22.2 -05 45 49   4.3479  5.3268   167.9     2.3  20.0
...
2019 04 09    11 22 39.1 -04 50 28   4.3935  5.3088   153.5     4.8  20.0

(CBET 4612、MPEC 2019-E80)

スレッド表示 | 古いものから 前のトピック | 次のトピック | トップ

投稿するにはまず登録を
 
© 1999 Tsutomu Seki.